User: anonymous   Login
Location: Unspecified
(0.0000°N, 0.0000°E)
Time: 00:13:26
(UTC+00:00)
Language:

LilacSat-2 - Orbit

View from above orbital plane
View from above orbital plane
View from above satellite
View from above satellite

Ground track
Ground track

The orbit data is extracted from the following two-line orbital elements,

1 40908U 15049K   17328.57854355 +.00000634 +00000-0 +39149-4 0  9996
2 40908 097.4651 330.2558 0016701 022.3752 337.8204 15.13326757120423
Epoch (UTC): 24 November 2017 13:53:06
Eccentricity: 0.0016701
inclination: 97.4651°
perigee height: 514 km
apogee height: 537 km
right ascension of ascending node: 330.2558°
argument of perigee: 22.3752°
revolutions per day: 15.13326757
mean anomaly at epoch: 337.8204°
orbit number at epoch: 12042

The dashed part of the orbit path shows where the satellite is in the earth's shadow,  

DLR